Brno, Czech Republic

8:58 PM CEST on October 19, 2017 (GMT +0200)
Turany

Weather History for LKTB - October, 2011

Change the Weather History Date:

Saturday, October 22, 2011

  Actual Average Record
Temperature  
Mean Temperature 39 °F -  
Max Temperature 50 °F 47 °F - ()
Min Temperature 28 °F 36 °F - ()
Degree Days  
Heating Degree Days 26    
Moisture  
Dew Point 31 °F    
Average Humidity 74    
Maximum Humidity 93    
Minimum Humidity 40    
Precipitation  
Precipitation 0.00 in 0.05 in - ()
Sea Level Pressure  
Sea Level Pressure 30.34 in    
Wind  
Wind Speed 4 mph ()    
Max Wind Speed 13 mph    
Max Gust Speed -    
Visibility 5.1 miles    
Events      
T = Trace of Precipitation, MM = Missing Value Source: Averaged Metar Reports

Daily Weather History Graph

Daily Weather History Graph

Search for Another Location

Airport or City:

Trip Planner

Search our weather history database for the weather conditions in past years. The results will help you decide how hot, cold, wet, or windy it might be!

Date:

Astronomy

Oct. 22, 2011 Rise Set
Actual Time 7:24 AM CEST 5:50 PM CEST
Civil Twilight 6:51 AM CEST 6:23 PM CEST
Nautical Twilight 6:14 AM CEST 6:59 PM CEST
Astronomical Twilight 5:37 AM CEST 7:36 PM CEST
Moon 1:34 AM CEST (10/22) 3:21 PM CEST (10/22)
Length of Visible Light 11h 31m
Length of Day
10h 26m
Waning Crescent, 26% of the Moon is Illuminated
Oct 22
Waning Crescent
Oct 26
New
Nov 2
First Quarter
Nov 10
Full
Nov 18
Last Quarter

Hourly Weather History & Observations

Time (CEST) Temp. Windchill Dew Point Humidity Pressure Visibility Wind Dir Wind Speed Gust Speed Precip Events Conditions
12:00 AM 37.4 °F 31.4 °F 32.0 °F 81% 30.39 in - North 8.1 mph - N/A   Clear
12:30 AM 35.6 °F 31.7 °F 30.2 °F 81% 30.39 in 5.0 mi NE 4.6 mph - N/A   Unknown
1:00 AM 33.8 °F - 30.2 °F 87% 30.39 in 5.0 mi Variable 2.3 mph - N/A   Unknown
1:30 AM 35.6 °F - 32.0 °F 87% 30.39 in 5.0 mi Calm Calm - N/A   Unknown
2:00 AM 35 °F - 31 °F 82% 30.44 in 5 mi NW 2.2 mph - -   Mist
2:00 AM 33.8 °F - 32.0 °F 93% 30.39 in 5.0 mi NW 1.2 mph - N/A   Unknown
2:30 AM 33.8 °F - 30.2 °F 87% 30.39 in 5.0 mi Calm Calm - N/A   Unknown
3:00 AM 33.8 °F - 30.2 °F 87% 30.36 in 5.0 mi North 2.3 mph - N/A   Unknown
3:30 AM 32.0 °F - 30.2 °F 93% 30.36 in 5.0 mi North 1.2 mph - N/A   Unknown
4:00 AM 32.0 °F - 30.2 °F 93% 30.36 in 4.3 mi NW 2.3 mph - N/A   Unknown
4:30 AM 32.0 °F - 30.2 °F 93% 30.36 in 5.0 mi North 2.3 mph - N/A   Unknown
5:00 AM 30.2 °F 26.7 °F 26.6 °F 86% 30.36 in - East 3.5 mph - N/A   Clear
5:30 AM 32.0 °F 27.5 °F 30.2 °F 93% 30.36 in - NE 4.6 mph - N/A   Clear
6:00 AM 32.0 °F 28.7 °F 28.4 °F 87% 30.36 in - NE 3.5 mph - N/A   Clear
6:30 AM 32.0 °F 26.4 °F 28.4 °F 87% 30.36 in - NNE 5.8 mph - N/A   Clear
7:00 AM 30.2 °F - 28.4 °F 93% 30.36 in - Variable 2.3 mph - N/A   Clear
7:30 AM 30.2 °F - 28.4 °F 93% 30.36 in 5.0 mi Variable 2.3 mph - N/A   Partly Cloudy
8:00 AM 31 °F - 29 °F 89% 30.43 in 4 mi West 2.2 mph - -   Mist
8:00 AM 32.0 °F - 30.2 °F 93% 30.36 in 4.3 mi Variable 2.3 mph - N/A   Unknown
8:30 AM 32.0 °F - 28.4 °F 87% 30.36 in 4.3 mi Variable 1.2 mph - N/A   Unknown
9:00 AM 33.8 °F - 30.2 °F 87% 30.36 in 4.3 mi Variable 1.2 mph - N/A   Unknown
9:30 AM 37.4 °F 32.8 °F 32.0 °F 81% 30.36 in 4.3 mi ENE 5.8 mph - N/A   Unknown
10:00 AM 39.2 °F 34.2 °F 33.8 °F 81% 30.36 in 3.7 mi ENE 6.9 mph - N/A   Unknown
10:30 AM 42.8 °F 37.5 °F 35.6 °F 76% 30.36 in 4.3 mi ENE 9.2 mph - N/A   Unknown
11:00 AM 44.6 °F 38.8 °F 33.8 °F 66% 30.36 in - East 11.5 mph - N/A   Clear
11:30 AM 44.6 °F 38.4 °F 32.0 °F 61% 30.36 in - East 12.7 mph - N/A   Clear
12:00 PM 44.6 °F 39.7 °F 32.0 °F 61% 30.36 in - East 9.2 mph - N/A   Clear
12:30 PM 46.4 °F 42.9 °F 33.8 °F 62% 30.36 in - ENE 6.9 mph - N/A   Clear
1:00 PM 48.2 °F - 32.0 °F 54% 30.33 in - ENE 8.1 mph - N/A   Clear
1:30 PM 48.2 °F - 33.8 °F 58% 30.33 in - East 6.9 mph - N/A   Clear
2:00 PM 50 °F - 33 °F 40% 30.34 in 6 mi ENE 4.5 mph - -   Scattered Clouds
2:00 PM 50.0 °F - 33.8 °F 54% 30.33 in 6.2 mi ENE 5.8 mph - N/A   Partly Cloudy
2:30 PM 50.0 °F - 33.8 °F 54% 30.30 in 6.2 mi ESE 4.6 mph - N/A   Partly Cloudy
3:00 PM 50.0 °F - 33.8 °F 54% 30.30 in 6.2 mi ESE 5.8 mph - N/A   Partly Cloudy
3:30 PM 50.0 °F - 32.0 °F 50% 30.30 in 6.2 mi ENE 5.8 mph - N/A   Partly Cloudy
4:00 PM 50.0 °F - 33.8 °F 54% 30.30 in 6.2 mi East 5.8 mph - N/A   Partly Cloudy
4:30 PM 50.0 °F - 33.8 °F 54% 30.30 in 6.2 mi East 5.8 mph - N/A   Partly Cloudy
5:00 PM 48.2 °F - 33.8 °F 58% 30.30 in - ENE 6.9 mph - N/A   Clear
5:30 PM 46.4 °F 43.5 °F 32.0 °F 57% 30.27 in - ENE 5.8 mph - N/A   Clear
6:00 PM 46.4 °F 42.4 °F 32.0 °F 57% 30.27 in - ENE 8.1 mph - N/A   Clear
6:30 PM 44.6 °F 42.2 °F 32.0 °F 61% 30.30 in - NE 4.6 mph - N/A   Clear
7:00 PM 42.8 °F 40.1 °F 32.0 °F 66% 30.30 in - NE 4.6 mph - N/A   Clear
7:30 PM 42.8 °F 39.3 °F 32.0 °F 66% 30.30 in - NE 5.8 mph - N/A   Clear
8:00 PM 41 °F - 31 °F 58% 30.34 in 7 mi ENE 6.7 mph - -  
8:00 PM 41.0 °F 37.1 °F 32.0 °F 70% 30.30 in - NE 5.8 mph - N/A   Clear
8:30 PM 41.0 °F 36.4 °F 32.0 °F 70% 30.30 in - NE 6.9 mph - N/A   Clear
9:00 PM 39.2 °F 34.2 °F 30.2 °F 70% 30.30 in - NE 6.9 mph - N/A   Clear
9:30 PM 39.2 °F 34.2 °F 30.2 °F 70% 30.27 in - NE 6.9 mph - N/A   Clear
10:00 PM 37.4 °F 32.8 °F 30.2 °F 75% 30.30 in - NE 5.8 mph - N/A   Clear
10:30 PM 37.4 °F 33.8 °F 30.2 °F 75% 30.30 in - ENE 4.6 mph - N/A   Clear
11:00 PM 35.6 °F 30.7 °F 30.2 °F 81% 30.30 in - ENE 5.8 mph - N/A   Clear
11:30 PM 37.4 °F - 30.2 °F 75% 30.27 in - NNE 2.3 mph - N/A   Clear